Weather Roundup
Issued by NWS Springfield, MO

Home | Current Version | Previous Version | Text Only | Print | Product List | Glossary On
Versions: 1 2 3 4 5 6 7 8 9 10 11 12 13 14 15 16 17 18 19 20 21 22 23 24 25 26 27 28 29 30 31 32 33 34 35 36 37 38 39 40 41 42 43 44 45 46 47 48 49 50
000
NZUS99 KSGF 282007
HRRSGF

HOURLY WEATHER
NATIONAL WEATHER SERVICE SPRINGFIELD MO
200 PM CST SUN DEC 28 2014

......SGF CWA......

CITY           SKY/WX    TMP DP  RH WIND       PRES   REMARKS
SPRINGFIELD    SUNNY     36  25  64 N5        30.15F WCI  32
JOPLIN         SUNNY     36  24  62 VRB3      30.18F
WEST PLAINS    CLOUDY    33  25  72 N5        30.15F WCI  29
ROLLA          MOSUNNY   34  25  69 CALM      30.15F
OSAGE BEACH    SUNNY     36  25  64 CALM      30.18F

......SURROUNDING SGF CWA......

CITY           SKY/WX    TMP DP  RH WIND       PRES   REMARKS
CHANUTE        SUNNY     38  19  46 S5        30.16F WCI  34
PARSONS        SUNNY     39  20  46 SE5       30.18F
COFFEYVILLE    SUNNY     39  20  46 VRB3      30.18F
EMPORIA        SUNNY     38  20  48 S9        30.13F WCI  31
GROVE OK       SUNNY     37  28  70 CALM      30.19F
ROGERS AR      SUNNY     36  27  69 N5        30.15F WCI  32
SILOAM SPRINGS SUNNY     37  25  60 NE3       30.17F
HARRISON AR    PTSUNNY   35  26  69 CALM      30.16S
NEAR YELLVILLE CLOUDY    36  25  64 CALM      30.17F

......KANSAS AND MISSOURI......

CITY           SKY/WX    TMP DP  RH WIND       PRES   REMARKS
KANSAS CTY INT MOSUNNY   39  17  41 SW7       30.13F WCI  34
DOWNTOWN KC    SUNNY     40  17  39 S6        30.15F
COLUMBIA       SUNNY     35  24  64 SW5       30.18F WCI  31
SEDALIA        SUNNY     37  17  44 VRB3      30.18F
ST JOSEPH      SUNNY     39  19  44 S7        30.15F WCI  34
ST LOUIS       CLOUDY    36  25  64 NW6       30.21S WCI  31
SPIRIT OF STL  CLOUDY    35  25  66 CALM      30.20F
KIRKSVILLE     SUNNY     36  19  50 SW6       30.16F WCI  31
WICHITA        MOSUNNY   41  20  43 S13       30.11F
TOPEKA         SUNNY     41  19  41 S7        30.15F
OLATHE         SUNNY     37  19  48 SW6       30.14F WCI  32

......TENNESSEE......

CITY           SKY/WX    TMP DP  RH WIND       PRES   REMARKS
MEMPHIS        LGT RAIN  41  37  86 NE5       30.15F
NASHVILLE      LGT RAIN  41  39  93 N7        30.13S

......ARKANSAS.......

CITY           SKY/WX    TMP DP  RH WIND       PRES   REMARKS
FAYETTEVILLE   SUNNY     37  26  64 CALM      30.16F
FT SMITH       MOSUNNY   41  27  57 VRB3      30.18F
LITTLE ROCK    CLOUDY    40  30  67 N3        30.19F

......OKLAHOMA.......

CITY           SKY/WX    TMP DP  RH WIND       PRES   REMARKS
TULSA          MOSUNNY   37  21  52 S5        30.18F WCI  33
PONCA CITY     SUNNY     42  20  41 S6        30.15F
MCALESTER      SUNNY     42  22  44 VRB3      30.19F
OKLAHOMA CITY  SUNNY     39  22  50 S7        30.14F WCI  34

......IOWA............

CITY           SKY/WX    TMP DP  RH WIND       PRES   REMARKS
DES MOINES     MOSUNNY   33  23  66 S3        30.14F
QUAD CITIES    SUNNY     35  17  47 MISG      30.17F

......ILLINOIS........

CITY           SKY/WX    TMP DP  RH WIND       PRES   REMARKS
QUINCY         SUNNY     34  21  59 S5        30.17F WCI  30
CHICAGO        MOSUNNY   34  13  41 W10       30.14R WCI  26



USA.gov is the U.S. government's official web portal to all federal, state and local government web resources and services.